[[{"header":{"parameterUnit":"m.s-1","parameterCategory":1,"la1":30.2991,"la2":30.254,"lo1":-89.0895,"lo2":-89.0444,"dy":0.0017,"dx":0.0017,"nx":28,"ny":28,"refTime":"2023-09-08T21:00:00:Z","depth":0,"parameterNumber":2,"parameterNumberName":"U-component_of_WINDS"},"data":[0,0,0,0,0,0,0,0,0,0,0,0,0,0,0,0,0,0,0,0,0,0,0,0,0,0,0,0,0,0,0,0,0,0,0,0,0,0,0,0,0,0,0,0,0,0,0,0,0,0,0,0,0,0,0,0,0,0,0.7826,0.7828,0,0.7961,0.7963,0.7964,0.7957,0.7955,0.7953,0.7952,0.8094,0.81,0.8105,0,0,0,0,0,0,0,0,0,0,0,0,0,0.7568,0.7572,0.7826,0.7828,0.783,0.7961,0.7963,0.7964,0.7958,0.7955,0.7953,0.7951,0.8092,0.8099,0.8106,0,0,0,0,0,0,0,0,0,0,0,0,0,0.7689,0.7574,0.7826,0.7842,0.7845,0.796,0.7963,0.7965,0.7958,0.7955,0.7952,0.795,0.809,0.8098,0.8107,0.8217,0,0,0.8132,0.8136,0,0,0,0,0,0,0,0,0.7682,0.7699,0.7838,0.7841,0.7844,0.7939,0.7924,0.8049,0.7959,0.7915,0.7952,0.7948,0.8045,0.8057,0.8089,0.8223,0.8229,0.8133,0.8138,0.8142,0.8144,0,0,0,0,0,0,0,0.7674,0.7693,0.788,0.784,0.7844,0.7844,0.7858,0.7948,0.7995,0.7919,0.7919,0.7934,0.8047,0.8081,0.8092,0.8231,0.8133,0.814,0.8145,0.8149,0.8464,0.8467,0,0,0,0,0,0,0.7661,0.7686,0.7875,0.7884,0.7754,0.7851,0.7867,0.7912,0.7994,0.8004,0.7937,0.7934,0.8068,0.8082,0.8097,0.8232,0.8142,0.8149,0.8154,0.8461,0.8465,0.8468,0,0,0,0,0,0,0.7656,0.7678,0.787,0.7785,0.7809,0.7858,0.7909,0.7916,0.795,0.8008,0.8016,0.7963,0.8066,0.8085,0.8187,0.8237,0.8153,0.8161,0.8457,0.8462,0.8467,0.8502,0,0,0,0,0,0,0.7648,0.7676,0.7717,0.7786,0.7814,0.7956,0.7912,0.7921,0.7964,0.7961,0.8034,0.8044,0.8065,0.8174,0.8195,0.8247,0.8167,0.8452,0.8459,0.8465,0.8497,0.8508,0.8517,0,0,0,0,0,0.7639,0.7723,0.7719,0.7742,0.7866,0.7959,0.7975,0.7997,0.7968,0.8011,0.8048,0.8041,0.8228,0.8185,0.8208,0.8263,0.8449,0.8457,0.8464,0.8492,0.8505,0.8517,0,0,0,0,0,0,0.766,0.7732,0.7729,0.7837,0.7892,0.7957,0.8012,0.801,0.8075,0.807,0.8096,0.8113,0.8215,0.8249,0.82,0.8375,0.8335,0.8348,0.8348,0.8361,0.8371,0.8361,0.8174,0,0,0,0,0,0.7677,0.7745,0.7805,0.7894,0.7922,0.7962,0.8003,0.8016,0.8074,0.8097,0.8142,0.82,0.8272,0.8318,0.8388,0.8502,0.8518,0.8551,0.8561,0.8569,0.858,0.8644,0.8659,0.8493,0.8493,0.8493,0,0,0.7714,0.7761,0.7803,0.79,0.7944,0.8015,0.7982,0.8058,0.8112,0.811,0.8208,0.8242,0.8309,0.8417,0.8467,0.8449,0.863,0.8579,0.8585,0.8591,0.8653,0.8669,0.8683,0.8498,0.8497,0.8496,0,0,0.7816,0.7858,0.7938,0.7982,0.8049,0.8075,0.8094,0.8161,0.8183,0.8282,0.8281,0.8347,0.8469,0.8517,0.8557,0.8679,0.8676,0.8701,0.8754,0.8816,0.8829,0.8841,0.8885,0.89,0.8711,0.8711,0.8711,0,0.7853,0.7959,0.7979,0.8057,0.81,0.81,0.8182,0.8224,0.831,0.8341,0.8319,0.8474,0.8519,0.8638,0.8668,0.87,0.8724,0.8693,0.8825,0.8837,0.8849,0.8891,0.8907,0.8714,0.8714,0.8713,0.8713,0,0.8002,0.8075,0.8132,0.8214,0.8264,0.8343,0.8377,0.8425,0.8433,0.8462,0.8563,0.8617,0.8697,0.8727,0.8736,0.8849,0.8835,0.8819,0.878,0.8867,0.8907,0.8923,0.8718,0.8717,0.8716,0.8715,0,0,0.8121,0.8213,0.8234,0.8271,0.8345,0.8403,0.8483,0.856,0.8601,0.8661,0.873,0.8834,0.8819,0.8865,0.888,0.8934,0.9028,0.8912,0.8913,0.8932,0.9156,0.9167,0.9186,0.9026,0.9029,0.9032,0.915,0,0.8231,0.8371,0.8392,0.8516,0.8585,0.8586,0.8656,0.871,0.8739,0.8804,0.8837,0.891,0.8885,0.8913,0.8967,0.9005,0.9073,0.8996,0.9091,0.9094,0.9074,0.9207,0.9219,0.9329,0.9166,0.9169,0.9171,0,0.8378,0.8441,0.8571,0.8636,0.8666,0.8728,0.8801,0.8862,0.8923,0.8941,0.8992,0.9001,0.9085,0.9042,0.916,0.9107,0.9147,0.9172,0.9177,0.9187,0.9138,0.922,0.9364,0.938,0.9196,0.9194,0.9192,0,0.8453,0.857,0.8663,0.8695,0.8773,0.8817,0.8851,0.891,0.8955,0.902,0.9049,0.9123,0.9164,0.9222,0.925,0.9216,0.9366,0.9326,0.9384,0.9384,0.9416,0.9414,0.9568,0.9442,0.9441,0.9441,0.9441,0,0.8574,0.8654,0.8697,0.8755,0.8845,0.8869,0.8958,0.8992,0.9044,0.9109,0.9116,0.9177,0.9211,0.9278,0.9301,0.9395,0.9413,0.9431,0.9436,0.9431,0.9428,0.9457,0.945,0.9445,0.9444,0.9444,0.9443,0,0.8672,0.8704,0.8806,0.8871,0.889,0.8953,0.901,0.9067,0.9096,0.9178,0.9199,0.9246,0.9325,0.9359,0.9457,0.9472,0.958,0.958,0.9559,0.9561,0.9618,0.9612,0.9796,0.9822,0.9678,0.9679,0.9681,0,0.8747,0.8808,0.888,0.8923,0.8959,0.9029,0.9075,0.9102,0.915,0.9225,0.9273,0.9352,0.9416,0.9543,0.9586,0.9661,0.9663,0.9723,0.9674,0.9667,0.9664,0.966,0.9667,0.9731,0.9733,0.9734,0.9735,0,0.8876,0.889,0.8955,0.9027,0.9081,0.9139,0.9196,0.9232,0.9268,0.9322,0.9402,0.9452,0.9551,0.963,0.9708,0.9745,0.9747,0.975,0.9767,0.9762,0.9747,0.9756,0.9583,0.9745,0.9744,0.9743,0.9743,0.9742,0.8966,0.902,0.9079,0.9153,0.9198,0.9251,0.9308,0.9344,0.9411,0.9493,0.9505,0.9591,0.9652,0.9756,0.9797,0.9865,0.9851,0.9876,0.9883,0.9889,0.9892,0.9736,0.988,0.988,0.9879,0.9879,0.9879,0,0.9096,0.9134,0.9201,0.928,0.9338,0.9333,0.9396,0.9445,0.952,0.9576,0.9639,0.9732,0.9809,0.9858,0.9936,0.9981,0.9984,1.0001,0.9998,1.0006,0.9901,0.9878,0.9997,0.9997,0.9997,0.9997,0.9997,0.9997,0.917,0.9263,0.9283,0.9399,0.9437,0.952,0.9557,0.9606,0.9651,0.9754,0.9817,0.9849,0.9903,0.9985,1.0055,1.0068,1.0096,1.0114,1.0126,1.0026,1.0014,1.0002,0.9981,1.012,1.012,1.0226,1.0227,1.0227]},{"header":{"parameterUnit":"m.s-1","parameterCategory":1,"la1":30.2991,"la2":30.254,"lo1":-89.0895,"lo2":-89.0444,"dy":0.0017,"dx":0.0017,"nx":28,"ny":28,"refTime":"2023-09-08T21:00:00:Z","depth":0,"parameterNumber":3,"parameterNumberName":"V-component_of_WINDS"},"data":[0,0,0,0,0,0,0,0,0,0,0,0,0,0,0,0,0,0,0,0,0,0,0,0,0,0,0,0,0,0,0,0,0,0,0,0,0,0,0,0,0,0,0,0,0,0,0,0,0,0,0,0,0,0,0,0,0,0,0.2797,0.2797,0,0.2792,0.2792,0.2792,0.2693,0.269,0.2688,0.2685,0.2686,0.2689,0.2691,0,0,0,0,0,0,0,0,0,0,0,0,0,0.2723,0.2725,0.2797,0.2797,0.2797,0.2792,0.2792,0.2792,0.2693,0.269,0.2687,0.2684,0.2686,0.2688,0.2691,0,0,0,0,0,0,0,0,0,0,0,0,0,0.2741,0.2725,0.2797,0.2746,0.2742,0.2792,0.2792,0.2792,0.2694,0.269,0.2686,0.2683,0.2685,0.2688,0.2692,0.2792,0,0,0.2703,0.2704,0,0,0,0,0,0,0,0,0.274,0.2743,0.2754,0.275,0.2745,0.2739,0.2767,0.2792,0.2695,0.2712,0.2685,0.2681,0.2707,0.2709,0.2717,0.2792,0.2792,0.2703,0.2705,0.2707,0.2708,0,0,0,0,0,0,0,0.2739,0.2743,0.2795,0.2754,0.2749,0.2725,0.2724,0.2771,0.2732,0.2711,0.2703,0.2704,0.2704,0.2714,0.2716,0.2792,0.2703,0.2706,0.2709,0.271,0.2946,0.295,0,0,0,0,0,0,0.2744,0.2743,0.2795,0.2795,0.2733,0.273,0.2728,0.2745,0.2731,0.2725,0.2707,0.2699,0.2709,0.2712,0.2716,0.283,0.2707,0.271,0.2713,0.2942,0.2947,0.2952,0,0,0,0,0,0,0.2742,0.2749,0.2795,0.2767,0.2771,0.2735,0.2755,0.2747,0.2756,0.2728,0.2721,0.2724,0.2706,0.2711,0.2773,0.2829,0.2712,0.2715,0.2937,0.2944,0.2949,0.3062,0,0,0,0,0,0,0.2741,0.2749,0.2786,0.2768,0.2773,0.2852,0.2759,0.275,0.2762,0.2752,0.2742,0.2737,0.2704,0.2768,0.2776,0.2832,0.2718,0.2932,0.294,0.2947,0.3053,0.3071,0.3086,0,0,0,0,0,0.2738,0.282,0.2789,0.2796,0.2818,0.2855,0.2858,0.2817,0.2767,0.2804,0.2786,0.2737,0.2821,0.2775,0.2784,0.2841,0.2928,0.2938,0.2947,0.3045,0.3067,0.3086,0,0,0,0,0,0,0.2849,0.2817,0.2782,0.286,0.2861,0.2838,0.2884,0.2842,0.2858,0.2848,0.2798,0.2796,0.2866,0.286,0.2809,0.2936,0.2866,0.2878,0.2938,0.2959,0.2975,0.2976,0.2721,0,0,0,0,0,0.2882,0.2913,0.2884,0.2956,0.2957,0.2921,0.2936,0.2903,0.2903,0.2904,0.289,0.2893,0.292,0.2939,0.2962,0.3051,0.3047,0.3095,0.3112,0.3125,0.3136,0.3181,0.3202,0.2982,0.2982,0.2981,0,0,0.2951,0.2937,0.2961,0.2977,0.2974,0.3009,0.2922,0.2963,0.2988,0.291,0.2967,0.2957,0.2957,0.3033,0.3065,0.303,0.3196,0.3137,0.3148,0.3152,0.3193,0.3214,0.3232,0.2988,0.2987,0.2986,0,0,0.3095,0.3088,0.3145,0.3143,0.3138,0.3113,0.3127,0.311,0.31,0.3155,0.3097,0.3127,0.3175,0.3176,0.3183,0.3324,0.328,0.3334,0.3422,0.3466,0.3483,0.3499,0.3548,0.3567,0.3344,0.3345,0.3345,0,0.3182,0.323,0.3181,0.3224,0.3233,0.3161,0.322,0.322,0.3225,0.3233,0.3192,0.3249,0.3244,0.3318,0.3352,0.336,0.3374,0.3335,0.3485,0.3499,0.3513,0.3559,0.3578,0.3351,0.335,0.335,0.3349,0,0.3337,0.3371,0.3419,0.3421,0.3435,0.3487,0.3446,0.3466,0.3432,0.3411,0.3468,0.3459,0.3478,0.3493,0.3462,0.3563,0.354,0.3493,0.3422,0.3541,0.3584,0.3602,0.336,0.3358,0.3356,0.3354,0,0,0.3553,0.3525,0.3543,0.3542,0.353,0.3556,0.3604,0.362,0.3638,0.3643,0.3681,0.3722,0.3677,0.3685,0.3653,0.3692,0.3803,0.3639,0.3638,0.367,0.3912,0.3948,0.3969,0.3772,0.3776,0.3778,0.3912,0,0.3691,0.3768,0.3724,0.3808,0.3839,0.3769,0.381,0.3808,0.3789,0.3813,0.3793,0.3822,0.3761,0.3765,0.3801,0.3782,0.3851,0.3771,0.3808,0.381,0.3811,0.3992,0.403,0.4157,0.3928,0.3931,0.3933,0,0.3863,0.3871,0.3958,0.3937,0.3949,0.3986,0.3996,0.402,0.4016,0.3999,0.4007,0.3964,0.4009,0.3938,0.4,0.3947,0.3959,0.3952,0.3956,0.3958,0.3879,0.3999,0.4196,0.4215,0.3959,0.3957,0.3955,0,0.401,0.4044,0.4099,0.4101,0.4079,0.4107,0.4099,0.409,0.4102,0.4112,0.4119,0.4135,0.4143,0.4157,0.4119,0.4071,0.4186,0.4112,0.4174,0.4175,0.4202,0.4201,0.4405,0.4211,0.421,0.421,0.421,0,0.4169,0.4225,0.4165,0.4199,0.4259,0.4208,0.4269,0.4254,0.4246,0.4277,0.4219,0.4249,0.4198,0.4223,0.4195,0.425,0.4254,0.4243,0.4234,0.4248,0.4249,0.4256,0.4246,0.4215,0.4214,0.4213,0.4212,0,0.4345,0.4307,0.4362,0.4335,0.433,0.4375,0.4353,0.4384,0.4359,0.4399,0.4405,0.4369,0.4395,0.4358,0.4382,0.4363,0.4438,0.4417,0.4439,0.4433,0.4497,0.4491,0.4712,0.4737,0.4527,0.4529,0.4531,0,0.4449,0.449,0.4466,0.4481,0.4475,0.4501,0.4512,0.4463,0.4476,0.4473,0.4504,0.4525,0.4539,0.4585,0.4561,0.4578,0.4557,0.4633,0.4559,0.4571,0.4558,0.4556,0.4559,0.4648,0.4651,0.4653,0.4655,0,0.4638,0.4616,0.4632,0.4642,0.4655,0.4661,0.4663,0.4679,0.4627,0.4646,0.4671,0.4682,0.4704,0.4725,0.4736,0.4729,0.4684,0.4677,0.4693,0.4707,0.4718,0.4712,0.448,0.4673,0.4671,0.467,0.4669,0.4668,0.4781,0.4812,0.4799,0.4819,0.4815,0.4817,0.4844,0.4821,0.484,0.4853,0.4823,0.4855,0.4848,0.4857,0.4855,0.4879,0.4847,0.4869,0.4875,0.4881,0.489,0.4714,0.4881,0.4881,0.488,0.488,0.4879,0,0.4966,0.4953,0.4971,0.4974,0.4989,0.4942,0.4941,0.4957,0.4985,0.4981,0.4995,0.5023,0.5043,0.5019,0.5035,0.5059,0.5039,0.5065,0.5063,0.5062,0.4919,0.4904,0.5081,0.5081,0.5081,0.5081,0.5081,0.5081,0.5064,0.5114,0.5091,0.5138,0.5125,0.5154,0.5157,0.5159,0.5155,0.5188,0.5203,0.5187,0.5175,0.5188,0.5205,0.5197,0.5206,0.524,0.5225,0.5092,0.5073,0.5054,0.5039,0.5242,0.5242,0.5365,0.5367,0.5368]}]]